Time,TemperatureF,DewpointF,PressureIn,WindDirection,WindDirectionDegrees,WindSpeedMPH,WindSpeedGustMPH,Humidity,HourlyPrecipIn,Conditions,Clouds,dailyrainin,SolarRadiationWatts/m^2,SoftwareType,DateUTC
2013-10-15 00:00:00,55.3,53.6,30.23,ESE,120,0.0,0.0,94,0.00,,,0.00,0,Wunderground v.1.15,2013-10-15 04:00:00,
2013-10-15 00:05:00,55.3,53.6,30.23,ESE,120,0.0,0.0,94,0.00,,,0.00,0,Wunderground v.1.15,2013-10-15 04:05:00,
2013-10-15 00:10:00,55.3,53.6,30.23,ESE,120,0.0,0.0,94,0.00,,,0.00,0,Wunderground v.1.15,2013-10-15 04:10:00,
2013-10-15 00:15:00,55.3,53.6,30.23,ESE,120,0.0,0.0,94,0.00,,,0.00,0,Wunderground v.1.15,2013-10-15 04:15:00,
2013-10-15 00:25:00,55.3,53.6,30.23,ESE,120,0.0,0.0,94,0.00,,,0.00,0,Wunderground v.1.15,2013-10-15 04:25:00,
2013-10-15 00:30:00,55.3,53.6,30.23,ESE,120,0.0,0.0,94,0.00,,,0.00,0,Wunderground v.1.15,2013-10-15 04:30:00,
2013-10-15 00:35:00,55.3,53.6,30.23,ESE,120,0.0,0.0,94,0.00,,,0.00,0,Wunderground v.1.15,2013-10-15 04:35:00,
2013-10-15 00:45:00,55.3,53.6,30.23,ESE,120,0.0,0.0,94,0.00,,,0.00,0,Wunderground v.1.15,2013-10-15 04:45:00,
2013-10-15 00:50:00,55.3,53.6,30.23,ESE,120,0.0,0.0,94,0.00,,,0.00,0,Wunderground v.1.15,2013-10-15 04:50:00,
2013-10-15 00:55:00,55.1,53.4,30.23,ESE,120,0.0,0.0,94,0.00,,,0.00,0,Wunderground v.1.15,2013-10-15 04:55:00,
2013-10-15 01:00:00,55.1,53.4,30.24,ESE,120,0.0,0.0,94,0.00,,,0.00,0,Wunderground v.1.15,2013-10-15 05:00:00,
2013-10-15 01:05:00,55.1,53.4,30.24,ESE,120,0.0,0.0,94,0.00,,,0.00,0,Wunderground v.1.15,2013-10-15 05:05:00,
2013-10-15 01:10:00,55.1,53.4,30.24,ESE,120,0.0,0.0,94,0.00,,,0.00,0,Wunderground v.1.15,2013-10-15 05:10:00,
2013-10-15 01:15:00,55.1,53.4,30.23,ESE,120,0.0,0.0,94,0.00,,,0.00,0,Wunderground v.1.15,2013-10-15 05:15:00,
2013-10-15 01:25:00,55.0,53.3,30.23,ESE,120,0.0,0.0,94,0.00,,,0.00,0,Wunderground v.1.15,2013-10-15 05:25:00,
2013-10-15 01:30:00,55.0,53.3,30.23,ESE,120,0.0,0.0,94,0.00,,,0.00,0,Wunderground v.1.15,2013-10-15 05:30:00,
2013-10-15 01:40:00,54.7,53.0,30.23,ESE,120,0.0,0.0,94,0.00,,,0.00,0,Wunderground v.1.15,2013-10-15 05:40:00,
2013-10-15 01:45:00,54.5,52.8,30.23,ESE,120,0.0,0.0,94,0.00,,,0.00,0,Wunderground v.1.15,2013-10-15 05:45:00,
2013-10-15 01:50:00,54.4,52.7,30.23,ESE,120,0.0,0.0,94,0.00,,,0.00,0,Wunderground v.1.15,2013-10-15 05:50:00,
2013-10-15 01:55:00,54.2,52.5,30.23,ESE,120,0.0,0.0,94,0.00,,,0.00,0,Wunderground v.1.15,2013-10-15 05:55:00,
2013-10-15 02:00:00,54.1,52.4,30.22,ESE,120,0.0,0.0,94,0.00,,,0.00,0,Wunderground v.1.15,2013-10-15 06:00:00,
2013-10-15 02:05:00,53.9,52.2,30.22,ESE,121,0.0,0.0,94,0.00,,,0.00,0,Wunderground v.1.15,2013-10-15 06:05:00,
2013-10-15 02:15:00,53.8,52.1,30.22,ESE,121,0.0,0.0,94,0.00,,,0.00,0,Wunderground v.1.15,2013-10-15 06:15:00,
2013-10-15 02:20:00,53.8,52.1,30.22,ESE,121,0.0,0.0,94,0.00,,,0.00,0,Wunderground v.1.15,2013-10-15 06:20:00,
2013-10-15 02:25:00,53.6,51.9,30.22,ESE,121,0.0,0.0,94,0.00,,,0.00,0,Wunderground v.1.15,2013-10-15 06:25:00,
2013-10-15 02:30:00,53.5,51.8,30.21,ESE,121,0.0,0.0,94,0.00,,,0.00,0,Wunderground v.1.15,2013-10-15 06:30:00,
2013-10-15 02:35:00,53.5,51.8,30.21,ESE,121,0.0,0.0,94,0.00,,,0.00,0,Wunderground v.1.15,2013-10-15 06:35:00,
2013-10-15 02:40:00,53.5,51.8,30.21,ESE,121,0.0,0.0,94,0.00,,,0.00,0,Wunderground v.1.15,2013-10-15 06:40:00,
2013-10-15 02:45:00,53.2,51.5,30.21,ESE,121,0.0,0.0,94,0.00,,,0.00,0,Wunderground v.1.15,2013-10-15 06:45:00,
2013-10-15 02:50:00,52.9,51.2,30.21,ESE,121,0.0,0.0,94,0.00,,,0.00,0,Wunderground v.1.15,2013-10-15 06:50:00,
2013-10-15 02:55:00,52.8,51.1,30.21,ESE,121,0.0,0.0,94,0.00,,,0.00,0,Wunderground v.1.15,2013-10-15 06:55:00,
2013-10-15 03:00:00,52.6,50.9,30.22,ESE,121,0.0,0.0,94,0.00,,,0.00,0,Wunderground v.1.15,2013-10-15 07:00:00,
2013-10-15 03:06:00,52.6,50.9,30.22,ESE,121,0.0,0.0,94,0.00,,,0.00,0,Wunderground v.1.15,2013-10-15 07:06:00,
2013-10-15 03:15:00,52.9,51.5,30.22,ESE,121,0.0,0.0,95,0.00,,,0.00,0,Wunderground v.1.15,2013-10-15 07:15:00,
2013-10-15 03:20:00,52.9,51.2,30.22,ESE,121,0.0,0.0,94,0.00,,,0.00,0,Wunderground v.1.15,2013-10-15 07:20:00,
2013-10-15 03:25:00,52.9,51.5,30.22,ESE,121,0.0,0.0,95,0.00,,,0.00,0,Wunderground v.1.15,2013-10-15 07:25:00,
2013-10-15 03:30:00,52.9,51.2,30.22,ESE,121,0.0,0.0,94,0.00,,,0.00,0,Wunderground v.1.15,2013-10-15 07:30:00,
2013-10-15 03:35:00,52.8,51.1,30.22,ESE,121,0.0,0.0,94,0.00,,,0.00,0,Wunderground v.1.15,2013-10-15 07:35:00,
2013-10-15 03:40:00,52.5,50.8,30.22,ESE,121,0.0,0.0,94,0.00,,,0.00,0,Wunderground v.1.15,2013-10-15 07:40:00,
2013-10-15 03:45:00,52.2,50.5,30.22,ESE,121,0.0,0.0,94,0.00,,,0.00,0,Wunderground v.1.15,2013-10-15 07:45:00,
2013-10-15 03:50:00,52.0,50.3,30.22,ESE,122,0.0,0.0,94,0.00,,,0.00,0,Wunderground v.1.15,2013-10-15 07:50:00,
2013-10-15 04:00:00,51.7,50.0,30.21,SW,224,0.0,0.0,94,0.00,,,0.00,0,Wunderground v.1.15,2013-10-15 08:00:00,
2013-10-15 04:06:00,51.6,49.9,30.21,SW,233,0.0,2.0,94,0.00,,,0.00,0,Wunderground v.1.15,2013-10-15 08:06:00,
2013-10-15 04:15:00,51.6,49.9,30.21,WNW,285,2.0,2.0,94,0.00,,,0.00,0,Wunderground v.1.15,2013-10-15 08:15:00,
2013-10-15 04:20:00,51.4,49.7,30.21,WSW,256,2.0,2.0,94,0.00,,,0.00,0,Wunderground v.1.15,2013-10-15 08:20:00,
2013-10-15 04:25:00,51.3,49.6,30.21,South,183,1.0,2.0,94,0.00,,,0.00,0,Wunderground v.1.15,2013-10-15 08:25:00,
2013-10-15 04:30:00,51.3,49.6,30.21,SSW,210,1.0,1.0,94,0.00,,,0.00,0,Wunderground v.1.15,2013-10-15 08:30:00,
2013-10-15 04:35:00,51.1,49.4,30.21,West,262,1.0,1.0,94,0.00,,,0.00,0,Wunderground v.1.15,2013-10-15 08:35:00,
2013-10-15 04:40:00,51.1,49.4,30.21,SSW,195,1.0,1.0,94,0.00,,,0.00,0,Wunderground v.1.15,2013-10-15 08:40:00,
2013-10-15 04:45:00,51.1,49.4,30.21,WSW,245,1.0,1.0,94,0.00,,,0.00,0,Wunderground v.1.15,2013-10-15 08:45:00,
2013-10-15 04:50:00,51.1,49.4,30.21,WSW,247,1.0,2.0,94,0.00,,,0.00,0,Wunderground v.1.15,2013-10-15 08:50:00,
2013-10-15 04:55:00,51.1,49.4,30.21,West,281,2.0,2.0,94,0.00,,,0.00,0,Wunderground v.1.15,2013-10-15 08:55:00,
2013-10-15 05:00:00,51.1,49.4,30.21,West,281,2.0,4.0,94,0.00,,,0.00,0,Wunderground v.1.15,2013-10-15 09:00:00,
2013-10-15 05:10:00,51.0,49.3,30.21,West,281,2.0,3.0,94,0.00,,,0.00,0,Wunderground v.1.15,2013-10-15 09:10:00,
2013-10-15 05:15:00,51.1,49.4,30.21,West,264,2.0,3.0,94,0.00,,,0.00,0,Wunderground v.1.15,2013-10-15 09:15:00,
2013-10-15 05:20:00,51.1,49.4,30.21,West,264,1.0,1.0,94,0.00,,,0.00,0,Wunderground v.1.15,2013-10-15 09:20:00,
2013-10-15 05:25:00,51.1,49.4,30.21,West,264,0.0,1.0,94,0.00,,,0.00,0,Wunderground v.1.15,2013-10-15 09:25:00,
2013-10-15 05:30:00,51.3,49.6,30.21,West,264,0.0,0.0,94,0.00,,,0.00,0,Wunderground v.1.15,2013-10-15 09:30:00,
2013-10-15 05:35:00,51.1,49.4,30.21,West,264,0.0,0.0,94,0.00,,,0.00,0,Wunderground v.1.15,2013-10-15 09:35:00,
2013-10-15 05:40:00,51.1,49.4,30.21,West,264,0.0,0.0,94,0.00,,,0.00,0,Wunderground v.1.15,2013-10-15 09:40:00,
2013-10-15 05:45:00,51.0,49.3,30.22,West,264,0.0,0.0,94,0.00,,,0.00,0,Wunderground v.1.15,2013-10-15 09:45:00,
2013-10-15 05:50:00,51.1,49.4,30.22,West,264,0.0,0.0,94,0.00,,,0.00,0,Wunderground v.1.15,2013-10-15 09:50:00,
2013-10-15 05:55:00,51.1,49.4,30.22,West,264,0.0,0.0,94,0.00,,,0.00,0,Wunderground v.1.15,2013-10-15 09:55:00,
2013-10-15 06:00:00,51.1,49.4,30.22,West,264,0.0,0.0,94,0.00,,,0.00,0,Wunderground v.1.15,2013-10-15 10:00:00,
2013-10-15 06:10:00,51.0,49.3,30.22,West,264,0.0,0.0,94,0.00,,,0.00,0,Wunderground v.1.15,2013-10-15 10:10:00,
2013-10-15 06:15:00,51.0,49.3,30.21,West,264,0.0,0.0,94,0.00,,,0.00,0,Wunderground v.1.15,2013-10-15 10:15:00,
2013-10-15 06:20:00,51.0,49.3,30.21,West,264,0.0,0.0,94,0.00,,,0.00,0,Wunderground v.1.15,2013-10-15 10:20:00,
2013-10-15 06:25:00,51.1,49.4,30.21,West,264,0.0,0.0,94,0.00,,,0.00,0,Wunderground v.1.15,2013-10-15 10:25:00,
2013-10-15 06:30:00,51.1,49.4,30.22,West,264,0.0,0.0,94,0.00,,,0.00,0,Wunderground v.1.15,2013-10-15 10:30:00,
2013-10-15 06:35:00,51.1,49.4,30.22,West,264,0.0,0.0,94,0.00,,,0.00,0,Wunderground v.1.15,2013-10-15 10:35:00,
2013-10-15 06:40:00,51.1,49.4,30.22,West,264,0.0,0.0,94,0.00,,,0.00,0,Wunderground v.1.15,2013-10-15 10:40:00,
2013-10-15 06:45:00,51.1,49.4,30.22,West,264,0.0,0.0,94,0.00,,,0.00,0,Wunderground v.1.15,2013-10-15 10:45:00,
2013-10-15 06:50:00,51.1,49.4,30.22,West,264,0.0,0.0,94,0.00,,,0.00,0,Wunderground v.1.15,2013-10-15 10:50:00,
2013-10-15 06:55:00,51.1,49.4,30.22,West,264,0.0,0.0,94,0.00,,,0.00,0,Wunderground v.1.15,2013-10-15 10:55:00,
2013-10-15 07:00:00,51.1,49.4,30.21,West,264,0.0,0.0,94,0.00,,,0.00,0,Wunderground v.1.15,2013-10-15 11:00:00,
2013-10-15 07:06:00,51.3,49.6,30.21,West,264,0.0,0.0,94,0.00,,,0.00,0,Wunderground v.1.15,2013-10-15 11:06:00,
2013-10-15 07:15:00,51.1,49.4,30.21,West,264,0.0,0.0,94,0.00,,,0.00,5,Wunderground v.1.15,2013-10-15 11:15:00,
2013-10-15 07:20:00,51.1,49.4,30.21,West,264,0.0,0.0,94,0.00,,,0.00,7,Wunderground v.1.15,2013-10-15 11:20:00,
2013-10-15 07:25:00,51.1,49.4,30.21,West,264,0.0,0.0,94,0.00,,,0.00,11,Wunderground v.1.15,2013-10-15 11:25:00,
2013-10-15 07:35:00,51.1,49.4,30.23,West,264,0.0,0.0,94,0.00,,,0.00,16,Wunderground v.1.15,2013-10-15 11:35:00,
2013-10-15 07:40:00,51.1,49.4,30.23,West,264,0.0,0.0,94,0.00,,,0.00,18,Wunderground v.1.15,2013-10-15 11:40:00,
2013-10-15 07:45:00,51.1,49.4,30.23,West,264,0.0,0.0,94,0.00,,,0.00,18,Wunderground v.1.15,2013-10-15 11:45:00,
2013-10-15 07:50:00,51.3,49.6,30.23,West,264,0.0,0.0,94,0.00,,,0.00,28,Wunderground v.1.15,2013-10-15 11:50:00,
2013-10-15 07:55:00,51.3,49.6,30.23,West,264,0.0,0.0,94,0.00,,,0.00,30,Wunderground v.1.15,2013-10-15 11:55:00,
2013-10-15 08:00:00,51.4,49.7,30.23,West,264,0.0,0.0,94,0.00,,,0.00,40,Wunderground v.1.15,2013-10-15 12:00:00,
2013-10-15 08:06:00,51.4,49.7,30.23,West,264,0.0,0.0,94,0.00,,,0.00,42,Wunderground v.1.15,2013-10-15 12:06:00,
2013-10-15 08:15:00,51.6,49.9,30.23,West,264,0.0,0.0,94,0.00,,,0.00,44,Wunderground v.1.15,2013-10-15 12:15:00,
2013-10-15 08:20:00,51.4,49.7,30.23,West,264,0.0,0.0,94,0.00,,,0.00,33,Wunderground v.1.15,2013-10-15 12:20:00,
2013-10-15 08:25:00,51.4,49.7,30.23,West,264,0.0,0.0,94,0.00,,,0.00,47,Wunderground v.1.15,2013-10-15 12:25:00,
2013-10-15 08:30:00,51.6,50.2,30.23,West,264,0.0,0.0,95,0.00,,,0.00,58,Wunderground v.1.15,2013-10-15 12:30:00,
2013-10-15 08:35:00,51.7,50.3,30.23,West,264,0.0,0.0,95,0.00,,,0.00,83,Wunderground v.1.15,2013-10-15 12:35:00,
2013-10-15 08:45:00,52.0,50.6,30.23,West,264,0.0,0.0,95,0.00,,,0.00,88,Wunderground v.1.15,2013-10-15 12:45:00,
2013-10-15 08:50:00,52.3,50.9,30.23,West,264,0.0,0.0,95,0.00,,,0.00,84,Wunderground v.1.15,2013-10-15 12:50:00,
2013-10-15 08:55:00,52.5,51.1,30.23,West,264,0.0,0.0,95,0.00,,,0.00,74,Wunderground v.1.15,2013-10-15 12:55:00,
2013-10-15 09:00:00,52.6,51.2,30.23,West,264,0.0,0.0,95,0.00,,,0.00,65,Wunderground v.1.15,2013-10-15 13:00:00,
2013-10-15 09:06:00,52.5,50.8,30.23,West,264,0.0,0.0,94,0.00,,,0.00,63,Wunderground v.1.15,2013-10-15 13:06:00,
2013-10-15 09:15:00,52.5,51.1,30.23,West,264,0.0,0.0,95,0.00,,,0.00,47,Wunderground v.1.15,2013-10-15 13:15:00,
2013-10-15 09:20:00,52.6,51.2,30.23,West,264,0.0,0.0,95,0.00,,,0.00,51,Wunderground v.1.15,2013-10-15 13:20:00,
2013-10-15 09:25:00,52.8,51.4,30.23,West,264,0.0,0.0,95,0.00,,,0.00,46,Wunderground v.1.15,2013-10-15 13:25:00,
2013-10-15 09:30:00,52.8,51.4,30.24,West,264,0.0,0.0,95,0.00,,,0.00,44,Wunderground v.1.15,2013-10-15 13:30:00,
2013-10-15 09:35:00,52.8,51.4,30.24,West,264,0.0,0.0,95,0.00,,,0.00,47,Wunderground v.1.15,2013-10-15 13:35:00,
2013-10-15 09:40:00,52.6,50.9,30.24,West,264,0.0,0.0,94,0.00,,,0.00,53,Wunderground v.1.15,2013-10-15 13:40:00,
2013-10-15 09:45:00,52.6,50.9,30.23,West,264,0.0,0.0,94,0.00,,,0.00,56,Wunderground v.1.15,2013-10-15 13:45:00,
2013-10-15 09:55:00,52.8,51.4,30.23,West,264,0.0,0.0,95,0.00,,,0.00,84,Wunderground v.1.15,2013-10-15 13:55:00,
2013-10-15 10:00:00,53.1,51.7,30.23,West,264,0.0,0.0,95,0.00,,,0.00,109,Wunderground v.1.15,2013-10-15 14:00:00,
2013-10-15 10:06:00,53.1,51.4,30.23,West,264,0.0,0.0,94,0.00,,,0.00,134,Wunderground v.1.15,2013-10-15 14:06:00,
2013-10-15 10:15:00,53.8,52.4,30.23,West,264,0.0,0.0,95,0.00,,,0.00,174,Wunderground v.1.15,2013-10-15 14:15:00,
2013-10-15 10:20:00,54.1,52.7,30.23,West,264,0.0,0.0,95,0.00,,,0.00,172,Wunderground v.1.15,2013-10-15 14:20:00,
2013-10-15 10:25:00,54.5,53.1,30.23,West,264,0.0,0.0,95,0.00,,,0.00,183,Wunderground v.1.15,2013-10-15 14:25:00,
2013-10-15 10:30:00,54.4,52.7,30.22,West,264,0.0,0.0,94,0.00,,,0.00,271,Wunderground v.1.15,2013-10-15 14:30:00,
2013-10-15 10:35:00,54.5,52.8,30.22,West,264,0.0,0.0,94,0.00,,,0.00,216,Wunderground v.1.15,2013-10-15 14:35:00,
2013-10-15 10:40:00,54.7,53.0,30.22,West,264,0.0,0.0,94,0.00,,,0.00,207,Wunderground v.1.15,2013-10-15 14:40:00,
2013-10-15 10:45:00,54.7,53.0,30.21,West,264,0.0,0.0,94,0.00,,,0.00,162,Wunderground v.1.15,2013-10-15 14:45:00,
2013-10-15 10:50:00,55.1,53.4,30.21,SSE,166,0.0,0.0,94,0.00,,,0.00,218,Wunderground v.1.15,2013-10-15 14:50:00,
2013-10-15 10:55:00,55.6,53.9,30.21,SSE,166,0.0,0.0,94,0.00,,,0.00,218,Wunderground v.1.15,2013-10-15 14:55:00,
2013-10-15 11:06:00,56.0,54.0,30.21,SSE,166,0.0,1.0,93,0.00,,,0.00,181,Wunderground v.1.15,2013-10-15 15:06:00,
2013-10-15 11:15:00,56.2,53.9,30.20,SSE,166,0.0,0.0,92,0.00,,,0.00,139,Wunderground v.1.15,2013-10-15 15:15:00,
2013-10-15 11:20:00,56.2,53.9,30.20,SSE,166,0.0,0.0,92,0.00,,,0.00,183,Wunderground v.1.15,2013-10-15 15:20:00,
2013-10-15 11:25:00,56.6,54.3,30.20,SSE,166,0.0,0.0,92,0.00,,,0.00,199,Wunderground v.1.15,2013-10-15 15:25:00,
2013-10-15 11:30:00,56.7,54.4,30.20,SSE,166,0.0,0.0,92,0.00,,,0.00,243,Wunderground v.1.15,2013-10-15 15:30:00,
2013-10-15 11:35:00,56.9,54.3,30.20,SSE,166,0.0,0.0,91,0.00,,,0.00,290,Wunderground v.1.15,2013-10-15 15:35:00,
2013-10-15 11:45:00,57.3,54.4,30.19,SSE,166,0.0,0.0,90,0.00,,,0.00,320,Wunderground v.1.15,2013-10-15 15:45:00,
2013-10-15 11:50:00,57.2,54.0,30.19,SSE,166,0.0,0.0,89,0.00,,,0.00,346,Wunderground v.1.15,2013-10-15 15:50:00,
2013-10-15 11:55:00,57.5,54.3,30.19,SSE,166,0.0,0.0,89,0.00,,,0.00,336,Wunderground v.1.15,2013-10-15 15:55:00,
2013-10-15 12:00:00,58.0,54.8,30.19,SSE,166,0.0,0.0,89,0.00,,,0.00,313,Wunderground v.1.15,2013-10-15 16:00:00,
2013-10-15 12:05:00,58.7,55.2,30.19,SSE,166,0.0,0.0,88,0.00,,,0.00,246,Wunderground v.1.15,2013-10-15 16:05:00,
2013-10-15 12:15:00,59.3,55.1,30.18,SSE,166,0.0,0.0,86,0.00,,,0.00,325,Wunderground v.1.15,2013-10-15 16:15:00,
2013-10-15 12:20:00,60.2,56.3,30.18,SSE,166,0.0,0.0,87,0.00,,,0.00,332,Wunderground v.1.15,2013-10-15 16:20:00,
2013-10-15 12:25:00,60.7,56.2,30.18,SSE,166,0.0,0.0,85,0.00,,,0.00,292,Wunderground v.1.15,2013-10-15 16:25:00,
2013-10-15 12:30:00,60.5,55.0,30.18,SSE,166,0.0,0.0,82,0.00,,,0.00,220,Wunderground v.1.15,2013-10-15 16:30:00,
2013-10-15 12:35:00,60.7,55.2,30.18,SSE,166,0.0,0.0,82,0.00,,,0.00,163,Wunderground v.1.15,2013-10-15 16:35:00,
2013-10-15 12:45:00,60.9,55.4,30.18,SSE,166,0.0,0.0,82,0.00,,,0.00,281,Wunderground v.1.15,2013-10-15 16:45:00,
2013-10-15 12:50:00,60.9,55.4,30.18,SSE,166,0.0,0.0,82,0.00,,,0.00,269,Wunderground v.1.15,2013-10-15 16:50:00,
2013-10-15 12:55:00,61.0,55.1,30.18,SSE,166,0.0,0.0,81,0.00,,,0.00,302,Wunderground v.1.15,2013-10-15 16:55:00,
2013-10-15 13:00:00,61.0,55.1,30.16,SSE,166,0.0,0.0,81,0.00,,,0.00,738,Wunderground v.1.15,2013-10-15 17:00:00,
2013-10-15 13:05:00,61.2,55.7,30.16,SSE,166,0.0,0.0,82,0.00,,,0.00,364,Wunderground v.1.15,2013-10-15 17:05:00,
2013-10-15 13:15:00,62.0,55.8,30.16,SSE,166,0.0,0.0,80,0.00,,,0.00,241,Wunderground v.1.15,2013-10-15 17:15:00,
2013-10-15 13:25:00,61.5,54.9,30.16,SSE,166,0.0,0.0,79,0.00,,,0.00,302,Wunderground v.1.15,2013-10-15 17:25:00,
2013-10-15 13:30:00,61.6,55.7,30.16,SSE,166,0.0,0.0,81,0.00,,,0.00,348,Wunderground v.1.15,2013-10-15 17:30:00,
2013-10-15 13:35:00,62.0,55.1,30.16,SSE,166,0.0,0.0,78,0.00,,,0.00,315,Wunderground v.1.15,2013-10-15 17:35:00,
2013-10-15 13:40:00,62.1,55.2,30.16,SSE,166,0.0,0.0,78,0.00,,,0.00,297,Wunderground v.1.15,2013-10-15 17:40:00,
2013-10-15 13:45:00,62.1,54.8,30.15,ENE,62,0.0,0.0,77,0.00,,,0.00,496,Wunderground v.1.15,2013-10-15 17:45:00,
2013-10-15 13:50:00,62.0,54.3,30.15,ENE,62,0.0,0.0,76,0.00,,,0.00,227,Wunderground v.1.15,2013-10-15 17:50:00,
2013-10-15 13:55:00,62.0,55.4,30.15,NE,53,0.0,0.0,79,0.00,,,0.00,227,Wunderground v.1.15,2013-10-15 17:55:00,
2013-10-15 14:00:00,62.7,56.1,30.14,NE,51,0.0,0.0,79,0.00,,,0.00,613,Wunderground v.1.15,2013-10-15 18:00:00,
2013-10-15 14:05:00,64.0,57.0,30.14,NE,51,0.0,0.0,78,0.00,,,0.00,582,Wunderground v.1.15,2013-10-15 18:05:00,
2013-10-15 14:15:00,64.7,54.7,30.13,NE,52,0.0,1.0,70,0.00,,,0.00,274,Wunderground v.1.15,2013-10-15 18:15:00,
2013-10-15 14:25:00,64.8,54.8,30.13,NE,52,0.0,0.0,70,0.00,,,0.00,195,Wunderground v.1.15,2013-10-15 18:25:00,
2013-10-15 14:30:00,65.0,55.8,30.13,NE,52,0.0,0.0,72,0.00,,,0.00,225,Wunderground v.1.15,2013-10-15 18:30:00,
2013-10-15 14:35:00,65.0,55.8,30.13,NE,52,0.0,0.0,72,0.00,,,0.00,195,Wunderground v.1.15,2013-10-15 18:35:00,
2013-10-15 14:45:00,64.8,55.6,30.12,NE,53,0.0,0.0,72,0.00,,,0.00,155,Wunderground v.1.15,2013-10-15 18:45:00,
2013-10-15 14:50:00,64.8,55.6,30.12,NE,53,0.0,0.0,72,0.00,,,0.00,232,Wunderground v.1.15,2013-10-15 18:50:00,
2013-10-15 14:55:00,64.8,55.6,30.12,NE,53,0.0,0.0,72,0.00,,,0.00,206,Wunderground v.1.15,2013-10-15 18:55:00,
2013-10-15 15:00:00,65.0,55.8,30.11,NE,53,0.0,0.0,72,0.00,,,0.00,174,Wunderground v.1.15,2013-10-15 19:00:00,
2013-10-15 15:05:00,64.7,55.1,30.11,NE,53,0.0,0.0,71,0.00,,,0.00,178,Wunderground v.1.15,2013-10-15 19:05:00,
2013-10-15 15:15:00,64.5,55.7,30.11,NE,53,0.0,0.0,73,0.00,,,0.00,114,Wunderground v.1.15,2013-10-15 19:15:00,
2013-10-15 15:25:00,64.5,56.0,30.11,NE,53,0.0,0.0,74,0.00,,,0.00,95,Wunderground v.1.15,2013-10-15 19:25:00,
2013-10-15 15:30:00,64.3,55.8,30.11,NE,53,0.0,0.0,74,0.00,,,0.00,93,Wunderground v.1.15,2013-10-15 19:30:00,
2013-10-15 15:35:00,64.3,55.8,30.11,NE,53,0.0,0.0,74,0.00,,,0.00,74,Wunderground v.1.15,2013-10-15 19:35:00,
2013-10-15 15:40:00,64.2,56.1,30.11,NE,53,0.0,0.0,75,0.00,,,0.00,63,Wunderground v.1.15,2013-10-15 19:40:00,
2013-10-15 15:45:00,64.2,56.1,30.11,NE,53,0.0,0.0,75,0.00,,,0.00,62,Wunderground v.1.15,2013-10-15 19:45:00,
2013-10-15 15:55:00,63.9,56.2,30.11,NE,53,0.0,0.0,76,0.00,,,0.00,37,Wunderground v.1.15,2013-10-15 19:55:00,
2013-10-15 16:00:00,63.7,56.0,30.11,NE,53,0.0,0.0,76,0.00,,,0.00,32,Wunderground v.1.15,2013-10-15 20:00:00,
2013-10-15 16:05:00,63.5,56.2,30.11,NE,53,0.0,0.0,77,0.00,,,0.00,30,Wunderground v.1.15,2013-10-15 20:05:00,
2013-10-15 16:15:00,63.2,55.9,30.11,NE,53,0.0,0.0,77,0.00,,,0.00,70,Wunderground v.1.15,2013-10-15 20:15:00,
2013-10-15 16:25:00,63.1,56.1,30.11,NE,53,0.0,0.0,78,0.00,,,0.00,83,Wunderground v.1.15,2013-10-15 20:25:00,
2013-10-15 16:30:00,62.9,56.3,30.11,NE,53,0.0,0.0,79,0.00,,,0.00,65,Wunderground v.1.15,2013-10-15 20:30:00,
2013-10-15 16:35:00,62.7,56.1,30.11,NE,53,0.0,0.0,79,0.00,,,0.00,70,Wunderground v.1.15,2013-10-15 20:35:00,
2013-10-15 16:40:00,62.7,56.1,30.11,NE,53,0.0,0.0,79,0.00,,,0.00,65,Wunderground v.1.15,2013-10-15 20:40:00,
2013-10-15 16:45:00,62.6,56.3,30.11,NE,53,0.0,0.0,80,0.00,,,0.00,74,Wunderground v.1.15,2013-10-15 20:45:00,
2013-10-15 16:50:00,62.6,56.3,30.11,NE,53,0.0,0.0,80,0.00,,,0.00,70,Wunderground v.1.15,2013-10-15 20:50:00,
2013-10-15 16:55:00,62.6,56.0,30.11,NE,53,0.0,0.0,79,0.00,,,0.00,60,Wunderground v.1.15,2013-10-15 20:55:00,
2013-10-15 17:00:00,62.3,56.0,30.11,NE,53,0.0,0.0,80,0.00,,,0.00,63,Wunderground v.1.15,2013-10-15 21:00:00,
2013-10-15 17:05:00,62.1,56.2,30.11,NE,53,0.0,0.0,81,0.00,,,0.00,70,Wunderground v.1.15,2013-10-15 21:05:00,
2013-10-15 17:15:00,62.0,56.4,30.10,NE,53,0.0,0.0,82,0.00,,,0.00,39,Wunderground v.1.15,2013-10-15 21:15:00,
2013-10-15 17:20:00,62.1,56.2,30.10,NE,53,0.0,0.0,81,0.00,,,0.00,28,Wunderground v.1.15,2013-10-15 21:20:00,
2013-10-15 17:30:00,61.8,55.9,30.09,NE,53,0.0,0.0,81,0.00,,,0.00,25,Wunderground v.1.15,2013-10-15 21:30:00,
2013-10-15 17:35:00,61.6,55.7,30.09,NE,53,0.0,0.0,81,0.00,,,0.00,16,Wunderground v.1.15,2013-10-15 21:35:00,
2013-10-15 17:40:00,61.5,55.6,30.09,NE,53,0.0,0.0,81,0.00,,,0.00,12,Wunderground v.1.15,2013-10-15 21:40:00,
2013-10-15 17:45:00,61.2,55.3,30.09,NE,53,0.0,0.0,81,0.00,,,0.00,11,Wunderground v.1.15,2013-10-15 21:45:00,
2013-10-15 17:50:00,61.0,55.5,30.09,NE,53,0.0,0.0,82,0.00,,,0.00,9,Wunderground v.1.15,2013-10-15 21:50:00,
2013-10-15 17:55:00,60.7,55.2,30.09,NE,53,0.0,0.0,82,0.00,,,0.00,7,Wunderground v.1.15,2013-10-15 21:55:00,
2013-10-15 18:00:00,60.4,54.9,30.09,NE,53,0.0,0.0,82,0.00,,,0.00,5,Wunderground v.1.15,2013-10-15 22:00:00,
2013-10-15 18:06:00,60.2,55.0,30.09,NE,53,0.0,0.0,83,0.00,,,0.00,0,Wunderground v.1.15,2013-10-15 22:06:00,
2013-10-15 18:15:00,59.8,54.6,30.09,NE,53,0.0,0.0,83,0.00,,,0.00,0,Wunderground v.1.15,2013-10-15 22:15:00,
2013-10-15 18:25:00,59.3,54.5,30.09,NE,53,0.0,1.0,84,0.00,,,0.00,0,Wunderground v.1.15,2013-10-15 22:25:00,
2013-10-15 18:30:00,59.2,54.7,30.09,NE,53,0.0,0.0,85,0.00,,,0.00,0,Wunderground v.1.15,2013-10-15 22:30:00,
2013-10-15 18:35:00,58.9,54.4,30.09,NE,53,0.0,0.0,85,0.00,,,0.00,0,Wunderground v.1.15,2013-10-15 22:35:00,
2013-10-15 18:40:00,58.6,54.1,30.09,NE,53,0.0,0.0,85,0.00,,,0.00,0,Wunderground v.1.15,2013-10-15 22:40:00,
2013-10-15 18:45:00,58.4,54.2,30.09,NE,53,0.0,0.0,86,0.00,,,0.00,0,Wunderground v.1.15,2013-10-15 22:45:00,
2013-10-15 18:50:00,58.3,54.1,30.09,NE,53,0.0,0.0,86,0.00,,,0.00,0,Wunderground v.1.15,2013-10-15 22:50:00,
2013-10-15 19:00:00,57.6,53.4,30.09,NE,53,0.0,0.0,86,0.00,,,0.00,0,Wunderground v.1.15,2013-10-15 23:00:00,
2013-10-15 19:06:00,57.5,53.7,30.09,NE,53,0.0,0.0,87,0.00,,,0.00,0,Wunderground v.1.15,2013-10-15 23:06:00,
2013-10-15 19:15:00,57.2,53.4,30.09,NE,53,0.0,0.0,87,0.00,,,0.00,0,Wunderground v.1.15,2013-10-15 23:15:00,
2013-10-15 19:20:00,57.0,53.2,30.09,NE,53,0.0,0.0,87,0.00,,,0.00,0,Wunderground v.1.15,2013-10-15 23:20:00,
2013-10-15 19:25:00,56.9,53.4,30.09,NE,53,0.0,0.0,88,0.00,,,0.00,0,Wunderground v.1.15,2013-10-15 23:25:00,
2013-10-15 19:30:00,56.7,53.2,30.09,NE,53,0.0,0.0,88,0.00,,,0.00,0,Wunderground v.1.15,2013-10-15 23:30:00,
2013-10-15 19:40:00,56.5,53.0,30.09,NE,53,0.0,0.0,88,0.00,,,0.00,0,Wunderground v.1.15,2013-10-15 23:40:00,
2013-10-15 19:45:00,56.3,52.8,30.09,NE,53,0.0,0.0,88,0.00,,,0.00,0,Wunderground v.1.15,2013-10-15 23:45:00,
2013-10-15 19:50:00,56.2,53.0,30.09,NE,53,0.0,0.0,89,0.00,,,0.00,0,Wunderground v.1.15,2013-10-15 23:50:00,
2013-10-15 19:55:00,56.0,52.8,30.09,NE,53,0.0,0.0,89,0.00,,,0.00,0,Wunderground v.1.15,2013-10-15 23:55:00,
2013-10-15 20:00:00,55.9,52.7,30.09,NE,53,0.0,0.0,89,0.00,,,0.00,0,Wunderground v.1.15,2013-10-16 00:00:00,
2013-10-15 20:06:00,55.7,52.5,30.09,NE,53,0.0,0.0,89,0.00,,,0.00,0,Wunderground v.1.15,2013-10-16 00:06:00,
2013-10-15 20:15:00,55.4,52.2,30.09,NE,53,0.0,0.0,89,0.00,,,0.00,0,Wunderground v.1.15,2013-10-16 00:15:00,
2013-10-15 20:20:00,55.3,52.1,30.09,NE,53,0.0,0.0,89,0.00,,,0.00,0,Wunderground v.1.15,2013-10-16 00:20:00,
2013-10-15 20:25:00,55.1,51.9,30.09,NE,53,0.0,0.0,89,0.00,,,0.00,0,Wunderground v.1.15,2013-10-16 00:25:00,
2013-10-15 20:30:00,55.0,51.8,30.09,NE,53,0.0,0.0,89,0.00,,,0.00,0,Wunderground v.1.15,2013-10-16 00:30:00,
2013-10-15 20:35:00,54.8,51.9,30.09,NE,53,0.0,0.0,90,0.00,,,0.00,0,Wunderground v.1.15,2013-10-16 00:35:00,
2013-10-15 20:40:00,54.7,51.8,30.09,NE,53,0.0,0.0,90,0.00,,,0.00,0,Wunderground v.1.15,2013-10-16 00:40:00,
2013-10-15 20:45:00,54.7,51.8,30.08,NE,53,0.0,0.0,90,0.00,,,0.00,0,Wunderground v.1.15,2013-10-16 00:45:00,
2013-10-15 20:50:00,54.5,51.6,30.08,NE,53,0.0,0.0,90,0.00,,,0.00,0,Wunderground v.1.15,2013-10-16 00:50:00,
2013-10-15 20:55:00,54.4,51.5,30.08,NE,53,0.0,0.0,90,0.00,,,0.00,0,Wunderground v.1.15,2013-10-16 00:55:00,
2013-10-15 21:00:00,54.4,51.5,30.09,NE,53,0.0,0.0,90,0.00,,,0.00,0,Wunderground v.1.15,2013-10-16 01:00:00,
2013-10-15 21:10:00,54.4,51.5,30.09,NE,53,0.0,0.0,90,0.00,,,0.00,0,Wunderground v.1.15,2013-10-16 01:10:00,
2013-10-15 21:15:00,54.2,51.6,30.09,NE,53,0.0,0.0,91,0.00,,,0.00,0,Wunderground v.1.15,2013-10-16 01:15:00,
2013-10-15 21:20:00,54.4,51.8,30.09,NE,53,0.0,0.0,91,0.00,,,0.00,0,Wunderground v.1.15,2013-10-16 01:20:00,
2013-10-15 21:25:00,54.2,51.6,30.09,NE,53,0.0,0.0,91,0.00,,,0.00,0,Wunderground v.1.15,2013-10-16 01:25:00,
2013-10-15 21:30:00,54.4,51.8,30.08,NE,53,0.0,0.0,91,0.00,,,0.00,0,Wunderground v.1.15,2013-10-16 01:30:00,
2013-10-15 21:35:00,54.4,51.8,30.08,NE,53,0.0,0.0,91,0.00,,,0.00,0,Wunderground v.1.15,2013-10-16 01:35:00,
2013-10-15 21:45:00,54.2,51.6,30.08,NE,53,0.0,0.0,91,0.00,,,0.00,0,Wunderground v.1.15,2013-10-16 01:45:00,
2013-10-15 21:50:00,54.1,51.5,30.08,NE,53,0.0,0.0,91,0.00,,,0.00,0,Wunderground v.1.15,2013-10-16 01:50:00,
2013-10-15 21:55:00,54.1,51.5,30.08,NE,53,0.0,0.0,91,0.00,,,0.00,0,Wunderground v.1.15,2013-10-16 01:55:00,
2013-10-15 22:00:00,53.9,51.3,30.08,NE,53,0.0,0.0,91,0.00,,,0.00,0,Wunderground v.1.15,2013-10-16 02:00:00,
2013-10-15 22:05:00,53.9,51.3,30.08,NE,53,0.0,0.0,91,0.00,,,0.00,0,Wunderground v.1.15,2013-10-16 02:05:00,
2013-10-15 22:15:00,53.9,51.6,30.07,NE,53,0.0,0.0,92,0.00,,,0.00,0,Wunderground v.1.15,2013-10-16 02:15:00,
2013-10-15 22:20:00,53.9,51.6,30.07,NE,53,0.0,0.0,92,0.00,,,0.00,0,Wunderground v.1.15,2013-10-16 02:20:00,
2013-10-15 22:25:00,53.9,51.6,30.07,NE,53,0.0,0.0,92,0.00,,,0.00,0,Wunderground v.1.15,2013-10-16 02:25:00,
2013-10-15 22:30:00,54.1,51.8,30.07,NE,53,0.0,0.0,92,0.00,,,0.00,0,Wunderground v.1.15,2013-10-16 02:30:00,
2013-10-15 22:40:00,54.5,52.2,30.07,NE,53,0.0,0.0,92,0.00,,,0.00,0,Wunderground v.1.15,2013-10-16 02:40:00,
2013-10-15 22:45:00,54.8,52.5,30.07,NE,53,0.0,0.0,92,0.00,,,0.00,0,Wunderground v.1.15,2013-10-16 02:45:00,
2013-10-15 22:50:00,54.8,52.5,30.07,NE,53,0.0,0.0,92,0.00,,,0.00,0,Wunderground v.1.15,2013-10-16 02:50:00,
2013-10-15 22:55:00,55.0,52.7,30.07,NE,53,0.0,0.0,92,0.00,,,0.00,0,Wunderground v.1.15,2013-10-16 02:55:00,
2013-10-15 23:00:00,55.1,52.8,30.07,SW,236,0.0,0.0,92,0.00,,,0.00,0,Wunderground v.1.15,2013-10-16 03:00:00,
2013-10-15 23:06:00,55.1,52.8,30.07,SW,236,0.0,0.0,92,0.00,,,0.00,0,Wunderground v.1.15,2013-10-16 03:06:00,
2013-10-15 23:15:00,55.1,52.8,30.06,SW,236,0.0,0.0,92,0.00,,,0.00,0,Wunderground v.1.15,2013-10-16 03:15:00,
2013-10-15 23:20:00,55.3,53.0,30.06,SW,236,0.0,0.0,92,0.00,,,0.00,0,Wunderground v.1.15,2013-10-16 03:20:00,
2013-10-15 23:25:00,55.4,53.1,30.06,SW,233,0.0,0.0,92,0.00,,,0.00,0,Wunderground v.1.15,2013-10-16 03:25:00,
2013-10-15 23:30:00,55.4,52.8,30.05,SW,233,0.0,0.0,91,0.00,,,0.00,0,Wunderground v.1.15,2013-10-16 03:30:00,
2013-10-15 23:35:00,55.3,52.7,30.05,SW,226,0.0,1.0,91,0.00,,,0.00,0,Wunderground v.1.15,2013-10-16 03:35:00,
2013-10-15 23:40:00,55.4,52.8,30.05,South,169,0.0,0.0,91,0.00,,,0.00,0,Wunderground v.1.15,2013-10-16 03:40:00,
2013-10-15 23:45:00,55.7,53.1,30.04,South,169,0.0,0.0,91,0.00,,,0.00,0,Wunderground v.1.15,2013-10-16 03:45:00,
2013-10-15 23:50:00,55.9,53.0,30.04,South,169,0.0,0.0,90,0.00,,,0.00,0,Wunderground v.1.15,2013-10-16 03:50:00,
2013-10-15 23:55:00,56.0,53.1,30.04,South,169,0.0,0.0,90,0.00,,,0.00,0,Wunderground v.1.15,2013-10-16 03:55:00,